Location: Seven Kings
(51.5667°N, 0.1000°E)
Time: 12:19:36
(UTC+00:00)

Cosmos 2315 Rocket - Pass Details

Date: 29 October 2020
Orbit: 966 x 1002 km, 82.9° (Epoch: 24 November)

Event Time Altitude Azimuth Distance (km) Brightness Sun altitude
Rises 19:03:09 0° 181° (S) 3,650 6.9 -23.1°
Reaches altitude 10° 19:05:38 10° 180° (S) 2,704 6.2 -23.5°
Maximum altitude 19:11:48 74° 97° (E) 1,007 3.8 -24.5°
Drops below altitude 10° 19:18:00 10° 13° (NNE) 2,721 6.3 -25.4°
Sets 19:20:32 0° 12° (NNE) 3,674 7.0 -25.8°
